This is the latest recevied weather packets stored in our database for station/object EA5CLU-13. If no packets are shown the sender has not sent any weather packets the latest 10 day(s).
| Time | Temp. | Humidity | Pressure | Rain* | Wind** | Luminosity | Snow |
|---|---|---|---|---|---|---|---|
| 1787648144 | 25° C | - | 1018 hPa | 0 mm | - | - | - |
| 1787647844 | 25.56° C | - | 1018.1 hPa | 0 mm | - | - | - |
| 1787647545 | 25° C | - | 1018 hPa | 0 mm | - | - | - |
| 1787646946 | 24.44° C | - | 1017.8 hPa | 0 mm | - | - | - |
| 1787646645 | 24.44° C | - | 1018.2 hPa | 0 mm | - | - | - |
| 1787646044 | 24.44° C | - | 1018.4 hPa | 0 mm | - | - | - |
| 1787645744 | 24.44° C | - | 1018.1 hPa | 0 mm | - | - | - |
| 1787645445 | 24.44° C | - | 1018.1 hPa | 0 mm | - | - | - |
| 1787645145 | 23.89° C | - | 1018.3 hPa | 0 mm | - | - | - |
| 1787644845 | 23.89° C | - | 1018.3 hPa | 0 mm | - | - | - |
| 1787644544 | 23.89° C | - | 1018.5 hPa | 0 mm | - | - | - |
| 1787644244 | 23.89° C | - | 1018.3 hPa | 0 mm | - | - | - |
| 1787643722 | 23.33° C | - | 1018.5 hPa | 0 mm | - | - | - |
| 1787643718 | 23.33° C | - | 1018.5 hPa | 0 mm | - | - | - |
| 1787643712 | 22.78° C | - | 1018.5 hPa | 0 mm | - | - | - |
| 1787643707 | 22.78° C | - | 1018.5 hPa | 0 mm | - | - | - |
| 1787643645 | 23.33° C | - | 1018.3 hPa | 0 mm | - | - | - |
| 1787643345 | 23.33° C | - | 1018.5 hPa | 0 mm | - | - | - |
| 1787643044 | 23.33° C | - | 1018.5 hPa | 0 mm | - | - | - |
| 1787642744 | 22.78° C | - | 1018.5 hPa | 0 mm | - | - | - |
| 1787642444 | 22.78° C | - | 1018.5 hPa | 0 mm | - | - | - |
| 1787642144 | 22.22° C | - | 1018.6 hPa | 0 mm | - | - | - |
| 1787641844 | 22.22° C | - | 1018.5 hPa | 0 mm | - | - | - |
| 1787641596 | 22.22° C | - | 1018.5 hPa | 0 mm | - | - | - |
| 1787641592 | 21.67° C | - | 1018.4 hPa | 0 mm | - | - | - |
* Rain latest hour (hover to see other rain measurements)
** Current wind speed in m/s (hover to see current wind gust speed)